#timestamp,LO_Frequency,Hit,StdDev 
1618999215.3,286047000.5,N
1618999235.1,286047000.3,N
1618999255.8,286047002.8,N
1618999275.7,286046999.8,N
1618999295.5,286047001.2,N
1618999315.4,286046999.4,N
1618999335.2,286047001.0,N
1618999355.0,286047002.1,N
1618999355.9,286047002.1,N
1618999375.8,286047002.2,N
1618999395.6,286047000.4,N
1618999415.4,286046999.4,N
1618999435.3,286046996.9,N
1618999455.1,286046999.2,N
1618999475.9,286046998.4,N
1618999495.7,286047001.6,N
1618999515.5,286047002.6,N
1618999535.4,286046999.9,N
1618999555.2,286047001.9,N
1618999575.0,286047004.0,N
1618999575.9,286047004.0,N
1618999595.8,286047003.7,N
1618999615.6,286047004.2,N
1618999635.5,286047001.4,N
1618999655.3,286047002.7,N
1618999675.1,286047002.3,N
1618999695.9,286047001.1,N
1618999715.7,286047000.8,N
1618999735.6,286047001.0,N
1618999755.4,286047002.2,N
1618999775.2,286047002.5,N
1618999795.1,286046998.5,N
1618999796.0,286046998.5,N
1618999815.8,286047000.8,N
1618999835.7,286046999.2,N
1618999855.5,286047000.6,N
1618999875.3,286047000.6,N
1618999895.2,286046998.4,N
1618999915.0,286047000.6,N
1618999915.9,286047000.6,N
1618999935.7,286047001.9,N
1618999955.6,286046998.1,N
1618999975.4,286046998.3,N
1618999995.3,286047000.0,N
1619000015.1,286047001.7,N
1619000016.0,286047001.7,N
1619000035.8,286047004.4,N
1619000055.7,286047001.8,N
1619000075.5,286046998.3,N
1619000095.3,286046998.6,N
1619000115.2,286047000.2,N
1619000135.0,286047000.5,N
1619000135.9,286047000.5,N
1619000155.8,286046999.4,N
1619000175.6,286046996.9,N
1619000195.4,286046996.7,N
1619000215.3,286046999.1,N
1619000235.1,286047000.6,N
1619000255.9,286047000.7,N
1619000275.7,286046996.9,N
1619000295.5,286047001.0,N
1619000315.4,286047001.0,N
1619000335.2,286047000.6,N
1619000355.0,286047000.6,N
1619000356.0,286047000.6,N
1619000375.8,286047001.1,N
1619000395.6,286047001.0,N
1619000415.5,286046998.7,N
1619000435.3,286046997.5,N
1619000455.1,286046997.1,N
1619000475.9,286047000.2,N
1619000495.7,286046998.5,N
1619000515.6,286046998.4,N
1619000535.4,286047000.1,N
1619000555.2,286046999.5,N
1619000575.1,286046997.7,N
1619000576.0,286046997.7,N
1619000595.8,286047001.2,N
1619000615.6,286046998.6,N
1619000635.5,286046999.1,N
1619000655.3,286046996.7,N
1619000675.2,286046998.7,N
1619000695.9,286047000.8,N
1619000715.7,286047001.0,N
1619000735.6,286047002.7,N
1619000755.4,286046999.9,N
1619000775.2,286046999.3,N
1619000795.1,286046996.7,N
1619000796.0,286046996.7,N
1619000815.8,286046998.9,N
1619000835.7,286046998.3,N
1619000855.5,286046998.4,N
1619000875.3,286046997.7,N
1619000895.2,286046997.9,N
1619000915.0,286046995.5,N
1619000915.9,286046995.5,N
1619000935.8,286046997.4,N
1619000955.6,286046997.7,N
1619000975.4,286046996.1,N
1619000995.3,286046995.5,N
1619001015.1,286046996.8,N
1619001016.0,286046996.8,N
1619001035.8,286046994.9,N
1619001055.7,286046998.0,N
1619001075.5,286046997.8,N
1619001095.3,286046999.4,N
1619001115.2,286046997.2,N
1619001135.0,286046999.5,N
1619001135.9,286046999.5,N
1619001155.8,286047002.5,N
1619001175.6,286047000.0,N
1619001195.4,286046998.3,N
1619001215.3,286046998.5,N
1619001235.1,286046996.7,N
1619001255.9,286046996.8,N
1619001275.7,286046995.3,N
1619001295.5,286046996.8,N
1619001315.4,286046997.8,N
1619001335.2,286046995.1,Y
1619001355.0,286046998.5,P
1619001355.9,286046998.5,P
1619001375.8,286047000.7,N
1619001395.6,286047000.8,N
1619001415.5,286047000.6,N
1619001435.3,286046998.9,N
1619001455.1,286046996.5,N
1619001475.9,286046996.5,N
1619001495.7,286046998.7,N
1619001515.6,286046997.3,N
1619001535.4,286046999.3,N
1619001555.2,286046998.6,N
1619001575.1,286046998.8,N
1619001576.0,286046998.8,N
1619001595.8,286046997.3,N
1619001615.6,286046999.1,N
1619001635.5,286046999.3,N
1619001655.3,286046998.2,N
1619001675.2,286047002.3,N
1619001695.9,286047000.5,N
1619001715.7,286046999.2,N
1619001735.6,286047000.4,N
1619001755.4,286047001.1,N
1619001775.2,286046997.0,N
1619001795.1,286046997.9,N
1619001796.0,286046997.9,N
1619001815.8,286046997.4,N
1619001835.7,286046996.8,N
1619001855.5,286046999.6,N
1619001875.3,286046996.7,N
1619001895.2,286047000.5,N
1619001915.0,286046998.1,N
1619001915.9,286046998.1,N
1619001935.8,286046999.2,N
1619001955.6,286047000.2,N
1619001975.4,286047000.4,N
1619001995.3,286047000.5,N
1619002015.1,286047000.3,N
1619002016.0,286047000.3,N
1619002035.8,286046998.8,N
1619002055.7,286046998.3,N
1619002075.5,286046998.8,N
1619002095.3,286046998.2,N
1619002115.2,286046999.2,N
1619002135.0,286046997.6,N
1619002135.9,286046997.6,N
1619002155.8,286046995.0,Y
1619002175.6,286046995.6,P
1619002195.4,286046997.2,N
1619002215.3,286046999.5,N
1619002235.1,286047001.0,N
1619002255.9,286047000.9,N
1619002275.7,286047002.2,N
1619002295.5,286047002.3,N
1619002315.4,286047003.8,N
1619002335.2,286047002.3,N
1619002355.0,286047000.2,N
1619002355.9,286047000.2,N
1619002375.8,286047001.0,N
1619002395.6,286046998.9,N
1619002415.4,286047002.4,N
1619002435.3,286046998.1,N
1619002455.1,286046996.6,N
1619002475.9,286046996.7,N
1619002495.7,286046998.3,N
1619002515.5,286047000.3,N
1619002535.4,286047002.8,N
1619002555.2,286046998.4,N
1619002575.0,286046998.6,N
1619002575.9,286046998.6,N
1619002595.8,286046999.8,N
1619002615.6,286047002.3,N
1619002635.5,286047002.4,N
1619002685.3,286047002.5,E
1619002695.2,286046998.1,N
1619002715.1,286046998.8,P
1619002716.0,286046998.8,P
1619002735.8,286047000.4,N
1619002755.7,286046999.9,N
1619002775.5,286047000.6,N
1619002795.3,286046998.5,N
